Tracking 28096 objects as of 28-Sep-2023
HD Live streaming from Space Station
objects crossing your sky now

STARLINK-4143

Track STARLINK-4143 now!
10-day predictions
STARLINK-4143 is classified as:


NORAD ID: 53029
Int'l Code: 2022-076AV
Perigee: 545.8 km
Apogee: 547.9 km
Inclination: 53.2 °
Period: 95.4 minutes
Semi major axis: 6917 km
RCS: Unknown
Launch date: July 7, 2022
Source: United States (US)
Launch site: AIR FORCE EASTERN TEST RANGE (AFETR)
Your satellite tracking list
Your tracking list is empty




NASA's NSSDC Master Catalog

Two Line Element Set (TLE):
1 53029U 22076AV  23270.98754562  .00000893  00000-0  74189-4 0  9999
2 53029  53.2171 126.0991 0001512  86.2521 273.8644 15.08838759 68676
Source of the keplerian elements: AFSPC